Regional Weather Roundup
Issued by NWS

Home | Current Version | Previous Version | Text Only | Print | Product List | Glossary On
Versions: 1 2 3 4 5 6 7 8 9 10 11 12 13 14 15 16 17 18 19 20 21 22 23 24 25 26 27 28 29 30 31 32 33 34 35 36 37 38 39 40 41 42 43 44 45 46 47 48 49 50
000
ASUS46 KSEW 252010
RWRWA

WASHINGTON REGIONAL WEATHER ROUNDUP
NATIONAL WEATHER SERVICE SEATTLE WA
100 PM PDT MON JUL 25 2016

NOTE:"FAIR" INDICATES FEW OR NO CLOUDS BELOW 12,000 FEET WITH NO
SIGNIFICANT WEATHER AND/OR OBSTRUCTIONS TO VISIBILITY.

WAZ505-507>509-252100-
SEATTLE, TACOMA, EVERETT, AND VICINITY

CITY           SKY/WX    TMP DP  RH WIND       PRES   REMARKS
EVERETT        MOSUNNY   75  56  51 NW7       30.09S
BOEING FIELD   SUNNY     80  56  43 NW10      30.06S
RENTON         SUNNY     79  59  50 N8        30.05F
SEATAC AIRPORT MOSUNNY   81  60  48 NW9       30.08S
JBLM-MCCHORD   SUNNY     80  59  48 NW3       30.07S
PUYALLUP       FAIR      81  59  47 CALM      30.08S
BREMERTON      SUNNY     82  59  44 CALM      30.09F
JBLM-FT LEWIS  SUNNY     79  59  49 VRB3      30.06F
TACOMA NARROWS SUNNY     77  56  48 SW6       30.07F
$$

WAZ001-503-506-510-514-515-252100-
NORTH INTERIOR

CITY           SKY/WX    TMP DP  RH WIND       PRES   REMARKS
BELLINGHAM     MOSUNNY   72  58  61 S8        30.06F
FRIDAY HARBOR  MOSUNNY   67  55  65 SE6       30.09S
EASTSOUND      PTSUNNY   72  63  73 N6        30.06S
PORT ANGELES   MOSUNNY   68  57  68 NW9       30.09F
EDIZ HOOK      FAIR      62  55  76 W13G20    30.09S
PORT TOWNSEND  FAIR      73  61  64 S5        30.08S
NAS WHIDBEY    PTSUNNY   63  53  70 W8        30.12S
ARLINGTON      MOSUNNY   77  57  50 NW10      30.07F
BURLINGTON     SUNNY     77  61  57 CALM      30.07S HAZE
$$

WAZ020-022-039-040-504-511-512-252100-
SOUTHWEST INTERIOR

CITY           SKY/WX    TMP DP  RH WIND       PRES   REMARKS
SHELTON        SUNNY     78  58  49 SW12      30.05F
OLYMPIA        SUNNY     81  55  40 NE8       30.06F
CHEHALIS       FAIR      81  59  47 NE7       30.07S
KELSO          SUNNY     75  61  61 VRB6      30.07F HAZE
VANCOUVER      SUNNY     77  58  51 VRB6      30.05F
SCAPPOOSE, OR  SUNNY     80  59  48 VRB6      30.04F
PORTLAND, OR   MOSUNNY   76  58  53 VRB5      30.05F
$$

WAZ021-516-517-252100-
WASHINGTON COAST

CITY           SKY/WX    TMP DP  RH WIND       PRES   REMARKS
FORKS          CLOUDY    64  60  87 W7        30.12S
HOQUIAM        SUNNY     68  61  78 SW16      30.11F HAZE
ASTORIA, OR    CLOUDY    70  60  70 NW10      30.11S
$$

WAZ019-023-024-040-518-519-252100-
CASCADE MOUNTAINS AND COLUMBIA GORGE

CITY           SKY/WX    TMP DP  RH WIND       PRES   REMARKS
STAMPEDE PASS  SUNNY     72  54  53 VRB6      30.17S
TROUTDALE, OR  SUNNY     76  58  53 MISG      30.05F
THE DALLES, OR SUNNY     89  55  31 NW17G24   29.92F
$$

WAZ026-027-041>044-520-521-252100-
EAST SLOPES

CITY           SKY/WX    TMP DP  RH WIND       PRES   REMARKS
OMAK           SUNNY     90  49  24 S5        29.96F
WENATCHEE      SUNNY     90  50  25 SE8       29.95F
ELLENSBURG     SUNNY     92  53  26 E3        29.99F
YAKIMA         MOSUNNY   95  48  20 E5        29.96F HX  91
$$

WAZ028-034-035-252100-
COLUMBIA BASIN

CITY           SKY/WX    TMP DP  RH WIND       PRES   REMARKS
EPHRATA        SUNNY     92  43  18 SW9       29.96F
MOSES LAKE     MOSUNNY   92  45  19 VRB7      29.97F
PASCO          SUNNY     93  45  19 W6        29.93F
HERMISTON, OR  SUNNY     93  48  21 VRB3      29.94F
$$

WAZ036>038-252100-
NORTHEAST WASHINGTON

CITY           SKY/WX    TMP DP  RH WIND       PRES   REMARKS
SPOKANE GEIGER MOSUNNY   86  46  24 VRB3      30.04F
SPOKANE FELTS  SUNNY     87  49  26 VRB5      30.02F
FAIRCHILD AFB  SUNNY     86  46  25 VRB5      30.04F
COEURDALENE,ID SUNNY     88  54  31 W3        30.00F
DEER PARK      SUNNY     86  46  24 S6        30.03F
$$

WAZ029>033-252100-
SOUTHEAST WASHINGTON

CITY           SKY/WX    TMP DP  RH WIND       PRES   REMARKS
PULLMAN        SUNNY     86  48  26 VRB3      30.06S
LEWISTON, ID   SUNNY     92  49  22 E6        29.98F
WALLA WALLA    SUNNY     91  45  20 VRB7      29.96F
PENDLETON, OR  SUNNY     92  42  17 VRB7      29.98F
$$



USA.gov is the U.S. government's official web portal to all federal, state and local government web resources and services.